Accueil
METAR-TAF:

METAR-TAF

Aéroports :

Vannes, France

Aéroport de Vannes

latitude: 47-43-19N, longitude: 2-43-41W, altitude: 130 m

Observation

Le bulletin a été fait il y a 41 minutes, à 01:00 UTC
Vent 3 kt de direction variable
Température 16°C
Humidité 94%
Pression 1021 hPa
Visibilité 10 km ou plus
Quelques nuages à une hauteur de 1200 ft
Ciel couvert à une hauteur de 5400 ft

METAR: LFRV 240100Z AUTO VRB03KT 9999 FEW012 OVC054 16/15 Q1021

Heure: 03:41 (01:41 UTC)


TAF: absent

Observations et prévisions météorologiques de plus de 4000 aéroports (messages METAR et TAF).

Les stations disponibles sont représentées par des disques jaunes et rouges sur la carte.

Passer la souris dessus pour voir le nom de la station.

Cliquer dessus pour voir les observations et prévisions météorologiques.

Pour changer de carte: cliquez sur les boutons verts avec une croix noire pour zoomer, sur le bouton vert avec un tiret pour effectuer un zoom arrière, ou sur les flèches vertes pour les cartes adjacentes.


METAR-TAF: